Weather History for Williams, AZ

Change the Weather History Date:

Sunday, February 16, 2014

  Actual Average (KFLG) Record (KFLG)
Temperature  
Mean Temperature 46 °F 32 °F  
Max Temperature 59 °F 45 °F 70 °F (1977)
Min Temperature 28 °F 19 °F -3 °F (1990)
Degree Days  
Heating Degree Days 20 33  
Month to date heating degree days 539  
Since 1 July heating degree days 4455  
Cooling Degree Days 0 0  
Month to date cooling degree days 0  
Year to date cooling degree days 0  
Moisture  
Dew Point 17 °F    
Average Humidity 29    
Maximum Humidity 64    
Minimum Humidity 20    
Precipitation  
Precipitation 0.00 in 0.09 in 1.40 in (1927)
Month to date precipitation 1.19  
Year to date precipitation 3.24  
Snow  
Snow 0.00 in 0.80 in 5.20 in (1975)
Month to date snowfall 12.5  
Since 1 July snowfall 64.8  
Snow Depth -    
Sea Level Pressure  
Sea Level Pressure 30.24 in    
Wind  
Wind Speed 10 mph (SSW)    
Max Wind Speed 18 mph    
Max Gust Speed 26 mph    
Visibility 10 miles    
Events      
T = Trace of Precipitation, MM = Missing Value Source: NWS Daily Summary

Daily Weather History Graph

Daily Weather History Graph

Search for Another Location

Airport:

Trip Planner

Search our weather history database for the weather conditions in past years. The results will help you decide how hot, cold, wet, or windy it might be!

Date:

Astronomy

Feb. 16, 2014 Rise Set
Actual Time 7:13 AM MST 6:12 PM MST
Civil Twilight 6:48 AM MST 6:38 PM MST
Nautical Twilight 6:18 AM MST 7:07 PM MST
Astronomical Twilight 5:48 AM MST 7:37 PM MST
Moon 8:06 PM MST (2/16) 7:50 AM MST (2/16)
Length of Visible Light 11h 50m
Length of Day
10h 58m
Full, 97% of the Moon is Illuminated
Feb 16
Full
Feb 22
Last Quarter
Mar 1
New
Mar 8
First Quarter
Mar 16
Full

Hourly Weather History & Observations

Time (MST) Temp. Windchill Dew Point Humidity Pressure Visibility Wind Dir Wind Speed Gust Speed Precip Events Conditions
12:15 AM 50.0 °F - 10.4 °F 20% 30.25 in 10.0 mi SSW 8.1 mph - N/A   Clear
12:35 AM 50.0 °F - 10.4 °F 20% 30.24 in 10.0 mi SSW 8.1 mph - N/A   Clear
12:55 AM 50.0 °F - 10.4 °F 20% 30.24 in 10.0 mi SSW 9.2 mph - N/A   Clear
1:15 AM 50.0 °F - 10.4 °F 20% 30.24 in 10.0 mi SSW 8.1 mph - N/A   Clear
1:35 AM 48.2 °F - 10.4 °F 22% 30.23 in 10.0 mi South 9.2 mph - N/A   Clear
1:55 AM 50.0 °F - 10.4 °F 20% 30.23 in 10.0 mi SSW 10.4 mph - N/A   Clear
2:15 AM 50.0 °F - 10.4 °F 20% 30.23 in 10.0 mi SSW 10.4 mph - N/A   Clear
2:35 AM 50.0 °F - 10.4 °F 20% 30.22 in 10.0 mi SSW 10.4 mph 17.3 mph N/A   Clear
2:55 AM 48.2 °F - 10.4 °F 22% 30.22 in 10.0 mi South 9.2 mph - N/A   Clear
3:15 AM 48.2 °F - 10.4 °F 22% 30.22 in 10.0 mi SSW 8.1 mph - N/A   Clear
3:35 AM 48.2 °F - 10.4 °F 22% 30.21 in 10.0 mi SSW 9.2 mph - N/A   Clear
3:55 AM 48.2 °F - 12.2 °F 24% 30.20 in 10.0 mi SSW 10.4 mph - N/A   Clear
4:15 AM 48.2 °F - 14.0 °F 25% 30.20 in 10.0 mi SSW 11.5 mph 18.4 mph N/A   Clear
4:35 AM 48.2 °F - 14.0 °F 25% 30.20 in 10.0 mi SSW 11.5 mph 16.1 mph N/A   Clear
4:55 AM 48.2 °F - 15.8 °F 27% 30.20 in 10.0 mi SSW 10.4 mph - N/A   Clear
5:15 AM 50.0 °F - 14.0 °F 24% 30.20 in 10.0 mi SSW 15.0 mph 19.6 mph N/A   Clear
5:35 AM 50.0 °F - 15.8 °F 26% 30.20 in 10.0 mi SSW 13.8 mph 20.7 mph N/A   Clear
5:55 AM 50.0 °F - 15.8 °F 26% 30.20 in 10.0 mi SW 11.5 mph 18.4 mph N/A   Clear
6:15 AM 48.2 °F - 15.8 °F 27% 30.21 in 10.0 mi SSW 11.5 mph - N/A   Clear
6:35 AM 48.2 °F - 15.8 °F 27% 30.20 in 10.0 mi South 9.2 mph - N/A   Clear
6:55 AM 48.2 °F - 15.8 °F 27% 30.21 in 10.0 mi South 9.2 mph - N/A   Clear
7:15 AM 48.2 °F - 15.8 °F 27% 30.21 in 10.0 mi South 9.2 mph - N/A   Clear
7:35 AM 48.2 °F - 15.8 °F 27% 30.22 in 10.0 mi South 9.2 mph - N/A   Clear
7:55 AM 48.2 °F - 15.8 °F 27% 30.23 in 10.0 mi SSW 8.1 mph - N/A   Partly Cloudy
8:15 AM 50.0 °F - 15.8 °F 26% 30.23 in 10.0 mi SSW 10.4 mph - N/A   Partly Cloudy
8:35 AM 50.0 °F - 17.6 °F 28% 30.24 in 10.0 mi SSW 9.2 mph 18.4 mph N/A   Partly Cloudy
8:55 AM 50.0 °F - 15.8 °F 26% 30.25 in 10.0 mi SW 10.4 mph 16.1 mph N/A   Clear
9:15 AM 50.0 °F - 17.6 °F 28% 30.24 in 10.0 mi SSW 11.5 mph 17.3 mph N/A   Clear
9:35 AM 53.6 °F - 17.6 °F 24% 30.24 in 10.0 mi SSW 11.5 mph 18.4 mph N/A   Clear
9:55 AM 55.4 °F - 15.8 °F 21% 30.24 in 10.0 mi SSW 12.7 mph 20.7 mph N/A   Clear
10:15 AM 55.4 °F - 17.6 °F 23% 30.24 in 10.0 mi SSW 13.8 mph 19.6 mph N/A   Clear
10:35 AM 57.2 °F - 17.6 °F 21% 30.24 in 10.0 mi SW 13.8 mph 23.0 mph N/A   Clear
10:55 AM 57.2 °F - 17.6 °F 21% 30.25 in 10.0 mi SSW 13.8 mph 20.7 mph N/A   Partly Cloudy
11:15 AM 59.0 °F - 17.6 °F 20% 30.24 in 10.0 mi SW 18.4 mph 25.3 mph N/A   Scattered Clouds
11:35 AM 57.2 °F - 17.6 °F 21% 30.24 in 10.0 mi SW 17.3 mph 26.5 mph N/A   Mostly Cloudy
11:55 AM 55.4 °F - 17.6 °F 23% 30.24 in 10.0 mi SW 17.3 mph 25.3 mph N/A   Mostly Cloudy
12:15 PM 55.4 °F - 17.6 °F 23% 30.24 in 10.0 mi SSW 12.7 mph 24.2 mph N/A   Scattered Clouds
12:35 PM 55.4 °F - 17.6 °F 23% 30.23 in 10.0 mi South 13.8 mph 18.4 mph N/A   Partly Cloudy
12:55 PM 57.2 °F - 17.6 °F 21% 30.23 in 10.0 mi SSW 13.8 mph 21.9 mph N/A   Scattered Clouds
1:15 PM 55.4 °F - 19.4 °F 25% 30.23 in 10.0 mi SSW 11.5 mph 21.9 mph N/A   Scattered Clouds
1:35 PM 55.4 °F - 19.4 °F 25% 30.22 in 10.0 mi South 15.0 mph 23.0 mph N/A   Partly Cloudy
1:55 PM 55.4 °F - 19.4 °F 25% 30.21 in 10.0 mi SSW 12.7 mph 17.3 mph N/A   Clear
2:15 PM 57.2 °F - 19.4 °F 23% 30.21 in 10.0 mi South 15.0 mph - N/A   Clear
2:35 PM 55.4 °F - 19.4 °F 25% 30.20 in 10.0 mi SSW 12.7 mph - N/A   Clear
2:55 PM 59.0 °F - 21.2 °F 23% 30.20 in 10.0 mi SW 15.0 mph 18.4 mph N/A   Clear
3:15 PM 57.2 °F - 19.4 °F 23% 30.20 in 10.0 mi SW 13.8 mph 24.2 mph N/A   Clear
3:35 PM 59.0 °F - 21.2 °F 23% 30.20 in 10.0 mi SW 15.0 mph 18.4 mph N/A   Clear
3:55 PM 59.0 °F - 19.4 °F 22% 30.20 in 10.0 mi SW 16.1 mph 21.9 mph N/A   Clear
4:15 PM 59.0 °F - 19.4 °F 22% 30.20 in 10.0 mi WSW 17.3 mph - N/A   Clear
4:35 PM 57.2 °F - 17.6 °F 21% 30.21 in 10.0 mi WSW 13.8 mph 21.9 mph N/A   Clear
4:55 PM 57.2 °F - 19.4 °F 23% 30.22 in 10.0 mi WSW 12.7 mph 20.7 mph N/A   Clear
5:15 PM 57.2 °F - 19.4 °F 23% 30.23 in 10.0 mi WSW 10.4 mph 18.4 mph N/A   Clear
5:35 PM 55.4 °F - 19.4 °F 25% 30.24 in 10.0 mi WSW 15.0 mph - N/A   Clear
5:55 PM 53.6 °F - 17.6 °F 24% 30.25 in 10.0 mi WSW 8.1 mph - N/A   Clear
6:15 PM 51.8 °F - 19.4 °F 28% 30.26 in 10.0 mi West 6.9 mph - N/A   Clear
6:35 PM 50.0 °F - 17.6 °F 28% 30.27 in 10.0 mi West 6.9 mph - N/A   Clear
6:55 PM 48.2 °F - 17.6 °F 30% 30.28 in 10.0 mi SW 3.5 mph - N/A   Clear
7:15 PM 46.4 °F 44.3 °F 19.4 °F 34% 30.29 in 10.0 mi SW 4.6 mph - N/A   Clear
7:35 PM 44.6 °F 43.1 °F 17.6 °F 34% 30.29 in 10.0 mi SW 3.5 mph - N/A   Clear
7:55 PM 41.0 °F - 19.4 °F 42% 30.30 in 10.0 mi Calm Calm - N/A   Clear
8:15 PM 39.2 °F 35.0 °F 19.4 °F 45% 30.30 in 10.0 mi SSE 5.8 mph - N/A   Clear
8:35 PM 39.2 °F 35.9 °F 19.4 °F 45% 30.30 in 10.0 mi SSE 4.6 mph - N/A   Clear
8:55 PM 37.4 °F 34.9 °F 19.4 °F 48% 30.30 in 10.0 mi SSW 3.5 mph - N/A   Clear
9:15 PM 35.6 °F - 19.4 °F 52% 30.31 in 10.0 mi Calm Calm - N/A   Clear
9:35 PM 35.6 °F 30.7 °F 19.4 °F 52% 30.31 in 10.0 mi SSE 5.8 mph - N/A   Clear
9:55 PM 35.6 °F 30.7 °F 19.4 °F 52% 30.31 in 10.0 mi SSE 5.8 mph - N/A   Clear
10:15 PM 32.0 °F 25.6 °F 19.4 °F 60% 30.32 in 10.0 mi SSE 6.9 mph - N/A   Clear
10:35 PM 32.0 °F 26.4 °F 19.4 °F 60% 30.32 in 10.0 mi SE 5.8 mph - N/A   Clear
10:55 PM 32.0 °F 24.2 °F 19.4 °F 60% 30.32 in 10.0 mi SSE 9.2 mph - N/A   Clear
11:15 PM 32.0 °F 24.2 °F 19.4 °F 60% 30.32 in 10.0 mi SSE 9.2 mph - N/A   Clear
11:35 PM 32.0 °F 24.2 °F 17.6 °F 55% 30.33 in 10.0 mi SSE 9.2 mph - N/A   Clear
11:55 PM 28.4 °F 19.7 °F 17.6 °F 64% 30.33 in 10.0 mi SE 9.2 mph - N/A   Clear